Location: Newark
(34.1333°N, 7.9667°W)
Time: 09:51:12
(UTC+00:00)

Vanguard 1 - All Passes

Search period start: 29 November 2021 00:00
Search period end: 09 December 2021 00:00
Orbit: 653 x 3830 km, 34.3° (Epoch: 28 November)

Date Brightness Start Highest point End Pass type
(mag) Time Alt. Az. Time Alt. Az. Time Alt. Az.
29 Nov - 01:04:03 10° SW 01:27:15 70° SSE 01:46:17 10° ENE visible
29 Nov - 03:30:43 10° W 03:54:10 90° WSW 04:08:46 10° E visible
29 Nov - 06:00:01 10° W 06:19:14 78° SSW 06:29:27 10° ESE visible
29 Nov - 08:28:57 10° W 08:40:20 32° SW 08:47:13 10° SSE daylight
29 Nov - 20:51:07 10° SSE 20:59:15 13° SE 21:08:04 10° ESE visible
29 Nov - 23:03:00 10° SSW 23:22:33 45° SE 23:42:47 10° ENE visible
30 Nov - 01:25:09 10° WSW 01:48:46 77° SSE 02:07:35 10° ENE visible
30 Nov - 03:52:37 10° W 04:15:49 89° N 04:29:52 10° E visible
30 Nov - 06:21:54 10° WNW 06:40:20 69° SSW 06:50:10 10° SE visible
30 Nov - 08:51:25 10° W 09:00:36 23° SW 09:06:44 10° S daylight
30 Nov - 21:07:15 10° S 21:19:48 20° SE 21:34:06 10° E visible
30 Nov - 23:23:06 10° SW 23:43:35 54° SE 00:04:34 10° ENE visible
01 Dec - 01:46:31 10° WSW 02:10:24 83° SSE 02:28:50 10° E visible
01 Dec - 04:14:34 10° W 04:37:25 89° S 04:50:56 10° E visible
01 Dec - 06:43:48 10° WNW 07:01:15 58° SSW 07:10:42 10° SE visible
01 Dec - 09:14:46 10° W 09:20:44 15° SW 09:25:19 10° SSW daylight
01 Dec - 21:25:27 10° S 21:40:22 28° SE 21:57:52 10° E visible
01 Dec - 23:43:34 10° SW 00:04:47 63° SSE 00:26:08 10° ENE visible
02 Dec - 02:08:04 10° WSW 02:32:07 88° S 02:50:04 10° E visible
02 Dec - 04:36:30 10° W 04:58:56 85° SSW 05:11:56 10° ESE visible
02 Dec - 07:05:45 10° WNW 07:21:56 47° SW 07:31:02 10° SSE daylight
02 Dec - 21:44:34 10° SSW 22:00:59 36° SE 22:20:38 10° E visible
03 Dec - 00:04:20 10° SW 00:26:08 71° SSE 00:47:37 10° ENE visible
03 Dec - 02:29:46 10° W 02:53:54 90° N 03:11:18 10° E visible
03 Dec - 04:58:25 10° W 05:20:19 79° SSW 05:32:50 10° ESE visible
03 Dec - 07:27:53 10° WNW 07:42:24 37° SW 07:51:03 10° SSE daylight
03 Dec - 19:53:41 10° SE 19:59:35 12° ESE 20:06:08 10° ESE visible
03 Dec - 22:04:15 10° SSW 22:21:43 45° SE 22:42:52 10° ENE visible
04 Dec - 00:25:21 10° WSW 00:47:40 78° SSE 01:09:02 10° ENE visible
04 Dec - 02:51:33 10° W 03:15:41 89° N 03:32:32 10° E visible
04 Dec - 05:20:18 10° WNW 05:41:31 70° SSW 05:53:36 10° SE visible
04 Dec - 07:50:22 10° W 08:02:41 27° SW 08:10:38 10° S daylight
04 Dec - 20:09:19 10° SSE 20:19:55 19° SE 20:32:52 10° E visible
04 Dec - 22:24:20 10° SW 22:42:37 54° SE 23:04:46 10° ENE visible
05 Dec - 00:46:36 10° WSW 01:09:21 84° SSE 01:30:25 10° E visible
05 Dec - 03:13:23 10° W 03:37:26 89° S 03:53:42 10° E visible
05 Dec - 05:42:12 10° WNW 06:02:31 61° SSW 06:14:11 10° SE visible
05 Dec - 08:13:33 10° W 08:22:50 19° SW 08:29:31 10° SSW daylight
05 Dec - 20:27:28 10° S 20:40:16 27° SE 20:56:51 10° E visible
05 Dec - 22:44:45 10° SW 23:03:42 63° SSE 23:26:29 10° ENE visible
06 Dec - 01:08:01 10° WSW 01:31:08 88° S 01:51:49 10° E visible
06 Dec - 03:35:13 10° W 03:59:04 85° SSW 04:14:47 10° ESE visible
06 Dec - 06:04:11 10° WNW 06:23:17 50° SW 06:34:30 10° SSE visible
06 Dec - 08:38:46 10° WSW 08:42:54 12° WSW 08:46:29 10° SW daylight
06 Dec - 20:46:35 10° SSW 21:00:42 35° SE 21:19:46 10° ENE visible
06 Dec - 23:05:27 10° SW 23:25:00 71° SSE 23:48:06 10° ENE visible
07 Dec - 01:29:34 10° W 01:53:00 90° N 02:13:12 10° E visible
07 Dec - 03:57:03 10° WNW 04:20:34 79° SSW 04:35:46 10° ESE visible
07 Dec - 06:26:19 10° WNW 06:43:50 40° SW 06:54:33 10° SSE visible
07 Dec - 18:59:26 10° SE 19:00:21 10° ESE 19:01:16 10° ESE visible
07 Dec - 21:06:14 10° SSW 21:21:16 44° SE 21:42:07 10° ENE visible
07 Dec - 23:26:23 10° WSW 23:46:29 79° SSE 00:09:40 10° ENE visible
08 Dec - 01:51:12 10° W 02:14:54 90° N 02:34:33 10° E visible
08 Dec - 04:18:51 10° WNW 04:41:54 71° SSW 04:56:35 10° SE visible
08 Dec - 06:48:48 10° W 07:04:11 31° SW 07:14:11 10° S visible
08 Dec - 19:12:12 10° SSE 19:20:31 17° SE 19:31:00 10° E visible
08 Dec - 21:26:18 10° SW 21:42:01 53° SE 22:04:09 10° ENE visible
